Regional Weather Roundup
Issued by NWS

Home | Current Version | Previous Version | Graphics & Text | Print | Product List | Glossary On
Versions: 1 2 3 4 5 6 7 8 9 10 11 12 13 14 15 16 17 18 19 20 21 22 23 24 25 26 27 28 29 30 31 32 33 34 35 36 37 38 39 40 41 42 43 44 45 46 47 48 49 50
000
ASUS43 KLMK 222310
RWRKY
KENTUCKY REGIONAL WEATHER ROUNDUP
NATIONAL WEATHER SERVICE LOUISVILLE KY
700 PM EDT THU JUN 22 2017

NOTE "FAIR" INDICATES FEW OR NO CLOUDS BELOW 12,000 FEET
WITH NO SIGNIFICANT WEATHER AND/OR OBSTRUCTIONS TO VISIBILITY.

KYZ001>023-026-027-061>063-070>075-230000-
WESTERN AND SOUTH CENTRAL KENTUCKY

CITY           SKY/WX    TMP DP  RH WIND       PRES   REMARKS
PADUCAH        PTSUNNY   84  74  71 SE8       29.77F HX  91
HENDERSON      CLOUDY    76  73  91 VRB6      29.83F
OWENSBORO      CLOUDY    75  73  93 SE7       29.85F
HOPKINSVILLE   CLOUDY    81  75  82 S8        29.83F
BOWLING GREEN  CLOUDY    80  76  87 S10       29.88F
GLASGOW        CLOUDY    75  75 100 S8        29.90F
$$

KYZ024-025-028>034-038-045-046-053-230000-
NORTH CENTRAL KENTUCKY

CITY           SKY/WX    TMP DP  RH WIND       PRES   REMARKS
LOUISVILLE/SDF RAIN      73  71  93 SE9       29.90S
LOUISVILLE/LOU HVY RAIN  73  72  96 SE7       29.91F FOG
FORT KNOX      LGT RAIN  71  71 100 E8        29.89F FOG
$$

KYZ035>037-039>044-047>052-055>060-089>105-230000-
NORTHEAST KENTUCKY

CITY           SKY/WX    TMP DP  RH WIND       PRES   REMARKS
LEXINGTON      RAIN      72  69  90 S18       29.96S FOG
COVINGTON      RAIN      72  70  93 S8        29.93F FOG
FRANKFORT      RAIN      72  68  87 S12G21    29.92F FOG
$$

KYZ054-064>069-076>088-106>120-230000-
SOUTHEAST KENTUCKY

CITY           SKY/WX    TMP DP  RH WIND       PRES   REMARKS
JACKSON        LGT RAIN  71  69  93 VRB7      30.01F
LONDON         LGT RAIN  71  68  90 SE7       29.97F
SOMERSET       CLOUDY    70  70 100 CALM      29.97S
MIDDLESBORO    CLOUDY    73  71  94 CALM      30.02F
MONTICELLO     CLOUDY    74  71  91 E7        29.97S
$$




USA.gov is the U.S. government's official web portal to all federal, state and local government web resources and services.